| time (UTC) | temp C | wind direction | speed KPH | gust KPH | rain 1hr cm | rain 24hr cm | rain mn cm | humidity % | barometer mb |
| 20260901020517 | 21 | 0.0 | 0.0 | 0.00 | 0.00 | 0.00 | 87 | 1013.3 | |
| 20260901015519 | 22 | 0.0 | 1.6 | 0.00 | 0.00 | 0.00 | 83 | 1013.4 | |
| 20260901014522 | 22 | 0 | 3.2 | 3.2 | 0.00 | 0.00 | 0.00 | 83 | 1013.5 |
| 20260901013517 | 22 | 0 | 3.2 | 3.2 | 0.00 | 0.00 | 0.00 | 81 | 1013.2 |
| 20260901012518 | 23 | 0 | 3.2 | 4.8 | 0.00 | 0.00 | 0.00 | 82 | 1013.3 |
| 20260901011516 | 23 | 0 | 3.2 | 3.2 | 0.00 | 0.00 | 0.00 | 79 | 1013.4 |
| 20260901010517 | 23 | 0 | 3.2 | 3.2 | 0.00 | 0.00 | 0.00 | 80 | 1013.4 |
| 20260901005516 | 24 | 0 | 3.2 | 4.8 | 0.00 | 0.00 | 0.00 | 77 | 1013.2 |
| 20260901004516 | 24 | 0 | 3.2 | 4.8 | 0.00 | 0.00 | 0.00 | 80 | 1013.1 |
| 20260901003516 | 25 | 0 | 3.2 | 4.8 | 0.00 | 0.00 | 0.00 | 76 | 1013.2 |
| 20260901002517 | 25 | 0 | 1.6 | 3.2 | 0.00 | 0.00 | 0.00 | 76 | 1013.1 |
| 20260901001516 | 25 | 338 | 6.4 | 9.7 | 0.00 | 0.00 | 0.00 | 74 | 1012.9 |
| 20260901000516 | 26 | 338 | 4.8 | 6.4 | 0.00 | 0.00 | 0.00 | 75 | 1012.9 |
| 20260831235522 | 26 | 338 | 6.4 | 8.0 | 0.00 | 0.00 | 0.00 | 75 | 1013.0 |
| 20260831234537 | 27 | 338 | 4.8 | 6.4 | 0.00 | 0.00 | 0.00 | 71 | 1013.1 |
| 20260831233542 | 27 | 338 | 4.8 | 8.0 | 0.00 | 0.00 | 0.00 | 68 | 1013.2 |
| 20260831232516 | 27 | 338 | 6.4 | 9.7 | 0.00 | 0.00 | 0.00 | 66 | 1013.1 |
| 20260831231516 | 27 | 0 | 6.4 | 12.9 | 0.00 | 0.00 | 0.00 | 66 | 1013.2 |
| 20260831230536 | 27 | 0 | 9.7 | 14.5 | 0.00 | 0.00 | 0.00 | 63 | 1013.0 |
| 20260831225516 | 28 | 338 | 12.9 | 17.7 | 0.00 | 0.00 | 0.00 | 63 | 1013.1 |
| 20260831224516 | 28 | 338 | 12.9 | 19.3 | 0.00 | 0.00 | 0.00 | 64 | 1013.1 |
| 20260831223516 | 28 | 315 | 9.7 | 14.5 | 0.00 | 0.00 | 0.00 | 61 | 1013.1 |
| 20260831222516 | 28 | 338 | 12.9 | 16.1 | 0.00 | 0.00 | 0.00 | 62 | 1013.0 |
| 20260831221516 | 29 | 338 | 11.3 | 16.1 | 0.00 | 0.00 | 0.00 | 59 | 1013.1 |
| 20260831220516 | 29 | 338 | 12.9 | 17.7 | 0.00 | 0.00 | 0.00 | 59 | 1013.0 |
| 20260831215516 | 30 | 338 | 9.7 | 16.1 | 0.00 | 0.00 | 0.00 | 58 | 1013.0 |
| 20260831214517 | 29 | 338 | 6.4 | 9.7 | 0.00 | 0.00 | 0.00 | 58 | 1013.1 |
| 20260831213516 | 29 | 315 | 9.7 | 14.5 | 0.00 | 0.00 | 0.00 | 54 | 1012.9 |
| 20260831212516 | 30 | 338 | 11.3 | 14.5 | 0.00 | 0.00 | 0.00 | 56 | 1012.7 |
| 20260831211536 | 29 | 338 | 8.0 | 12.9 | 0.00 | 0.00 | 0.00 | 57 | 1012.8 |
| 20260831210516 | 30 | 338 | 9.7 | 14.5 | 0.00 | 0.00 | 0.00 | 54 | 1012.6 |
| 20260831205516 | 30 | 0 | 11.3 | 16.1 | 0.00 | 0.00 | 0.00 | 57 | 1012.7 |
| 20260831204516 | 30 | 315 | 11.3 | 19.3 | 0.00 | 0.00 | 0.00 | 54 | 1012.6 |
| 20260831203517 | 30 | 338 | 9.7 | 16.1 | 0.00 | 0.00 | 0.00 | 55 | 1012.7 |
| 20260831202516 | 30 | 338 | 12.9 | 19.3 | 0.00 | 0.00 | 0.00 | 56 | 1012.6 |
| 20260831201516 | 30 | 0 | 9.7 | 14.5 | 0.00 | 0.00 | 0.00 | 58 | 1012.5 |
| 20260831200516 | 30 | 338 | 12.9 | 17.7 | 0.00 | 0.00 | 0.00 | 55 | 1012.5 |
| 20260831195557 | 30 | 338 | 11.3 | 17.7 | 0.00 | 0.00 | 0.00 | 59 | 1012.4 |
| 20260831194516 | 29 | 338 | 14.5 | 20.9 | 0.00 | 0.00 | 0.00 | 58 | 1012.6 |
| 20260831193516 | 29 | 338 | 12.9 | 20.9 | 0.00 | 0.00 | 0.00 | 57 | 1012.6 |
| 20260831192516 | 29 | 0 | 11.3 | 17.7 | 0.00 | 0.00 | 0.00 | 58 | 1012.5 |
| 20260831191516 | 28 | 0 | 12.9 | 17.7 | 0.00 | 0.00 | 0.00 | 58 | 1012.6 |
| 20260831190516 | 29 | 338 | 11.3 | 17.7 | 0.00 | 0.00 | 0.00 | 59 | 1012.6 |
| 20260831185516 | 28 | 338 | 14.5 | 19.3 | 0.00 | 0.00 | 0.00 | 59 | 1012.6 |
| 20260831184516 | 28 | 338 | 14.5 | 20.9 | 0.00 | 0.00 | 0.00 | 57 | 1012.5 |
| 20260831183537 | 28 | 338 | 11.3 | 16.1 | 0.00 | 0.00 | 0.00 | 66 | 1012.5 |
| 20260831182516 | 28 | 315 | 12.9 | 20.9 | 0.00 | 0.00 | 0.00 | 68 | 1012.6 |
| 20260831181516 | 28 | 315 | 16.1 | 22.5 | 0.00 | 0.00 | 0.00 | 69 | 1012.6 |
| 20260831180516 | 27 | 338 | 14.5 | 19.3 | 0.00 | 0.00 | 0.00 | 72 | 1012.5 |
| 20260831175516 | 27 | 315 | 14.5 | 19.3 | 0.00 | 0.00 | 0.00 | 72 | 1012.6 |
| 20260831174516 | 27 | 338 | 12.9 | 17.7 | 0.00 | 0.00 | 0.00 | 77 | 1012.8 |
| 20260831173516 | 27 | 315 | 12.9 | 19.3 | 0.00 | 0.00 | 0.00 | 77 | 1012.7 |
| 20260831172515 | 26 | 338 | 11.3 | 19.3 | 0.00 | 0.00 | 0.00 | 78 | 1012.6 |
| 20260831171515 | 27 | 293 | 11.3 | 17.7 | 0.00 | 0.00 | 0.00 | 82 | 1012.6 |
| 20260831170516 | 26 | 315 | 11.3 | 17.7 | 0.00 | 0.00 | 0.00 | 84 | 1012.8 |
| 20260831165537 | 26 | 315 | 12.9 | 17.7 | 0.00 | 0.00 | 0.00 | 84 | 1012.8 |
| 20260831164516 | 25 | 315 | 11.3 | 16.1 | 0.00 | 0.00 | 0.00 | 85 | 1012.7 |
| 20260831163516 | 25 | 338 | 14.5 | 19.3 | 0.00 | 0.00 | 0.00 | 85 | 1012.7 |
| 20260831162515 | 25 | 338 | 12.9 | 17.7 | 0.00 | 0.00 | 0.00 | 86 | 1012.7 |
| 20260831161516 | 25 | 338 | 14.5 | 19.3 | 0.00 | 0.00 | 0.00 | 86 | 1012.7 |
| 20260831160515 | 25 | 315 | 14.5 | 20.9 | 0.00 | 0.00 | 0.00 | 87 | 1012.4 |
| 20260831155515 | 25 | 315 | 14.5 | 22.5 | 0.00 | 0.00 | 0.00 | 88 | 1012.3 |
| 20260831154538 | 25 | 338 | 14.5 | 19.3 | 0.00 | 0.00 | 0.00 | 91 | 1012.1 |
| 20260831153517 | 25 | 315 | 12.9 | 17.7 | 0.00 | 0.00 | 0.00 | 92 | 1012.0 |
| 20260831152538 | 24 | 338 | 12.9 | 17.7 | 0.00 | 0.00 | 0.00 | 93 | 1011.9 |
| 20260831151517 | 24 | 315 | 12.9 | 19.3 | 0.00 | 0.00 | 0.00 | 94 | 1011.9 |
| 20260831150517 | 24 | 338 | 12.9 | 17.7 | 0.00 | 0.00 | 0.00 | 96 | 1011.6 |
| 20260831145518 | 23 | 315 | 14.5 | 19.3 | 0.00 | 0.00 | 0.00 | 96 | 1011.6 |
| 20260831144517 | 23 | 338 | 12.9 | 17.7 | 0.00 | 0.00 | 0.00 | 96 | 1011.4 |
| 20260831143517 | 23 | 315 | 8.0 | 12.9 | 0.00 | 0.00 | 0.00 | 97 | 1011.4 |
| 20260831142518 | 23 | 293 | 8.0 | 12.9 | 0.00 | 0.00 | 0.00 | 97 | 1011.5 |
| 20260831141517 | 22 | 293 | 8.0 | 12.9 | 0.00 | 0.00 | 0.00 | 97 | 1011.6 |
| 20260831140537 | 22 | 293 | 8.0 | 17.7 | 0.00 | 0.00 | 0.00 | 97 | 1011.5 |
| 20260831135517 | 22 | 293 | 8.0 | 14.5 | 0.00 | 0.00 | 0.00 | 97 | 1011.5 |
| 20260831134518 | 22 | 293 | 8.0 | 12.9 | 0.00 | 0.00 | 0.00 | 97 | 1011.1 |
| 20260831133517 | 22 | 293 | 9.7 | 14.5 | 0.00 | 0.00 | 0.00 | 97 | 1010.9 |
| 20260831132517 | 22 | 270 | 6.4 | 14.5 | 0.00 | 0.00 | 0.00 | 98 | 1010.6 |
| 20260831131518 | 22 | 293 | 6.4 | 11.3 | 0.00 | 0.00 | 0.00 | 98 | 1010.5 |
| 20260831130517 | 21 | 293 | 8.0 | 14.5 | 0.00 | 0.00 | 0.00 | 98 | 1010.3 |
| 20260831125517 | 21 | 293 | 6.4 | 12.9 | 0.00 | 0.00 | 0.00 | 98 | 1010.3 |
| 20260831124538 | 21 | 270 | 3.2 | 4.8 | 0.00 | 0.00 | 0.00 | 98 | 1010.2 |
| 20260831123517 | 20 | 180 | 1.6 | 4.8 | 0.00 | 0.00 | 0.00 | 99 | 1010.0 |
| 20260831122517 | 20 | 180 | 1.6 | 4.8 | 0.00 | 0.00 | 0.00 | 99 | 1009.7 |
| 20260831121517 | 20 | 180 | 1.6 | 4.8 | 0.00 | 0.00 | 0.00 | 98 | 1009.5 |
| 20260831120517 | 20 | 180 | 3.2 | 4.8 | 0.00 | 0.00 | 0.00 | 98 | 1009.2 |
| 20260831115517 | 20 | 180 | 3.2 | 6.4 | 0.00 | 0.00 | 0.00 | 98 | 1009.3 |
| 20260831114517 | 20 | 203 | 4.8 | 8.0 | 0.00 | 0.00 | 0.00 | 98 | 1009.3 |
| 20260831113517 | 20 | 203 | 6.4 | 9.7 | 0.00 | 0.00 | 0.00 | 98 | 1009.1 |
| 20260831112517 | 19 | 203 | 4.8 | 8.0 | 0.00 | 0.00 | 0.00 | 98 | 1009.0 |
| 20260831111517 | 19 | 203 | 3.2 | 6.4 | 0.00 | 0.00 | 0.00 | 98 | 1008.9 |
| 20260831110517 | 20 | 180 | 4.8 | 9.7 | 0.00 | 0.00 | 0.00 | 98 | 1008.8 |
| 20260831105537 | 20 | 203 | 4.8 | 8.0 | 0.00 | 0.00 | 0.00 | 98 | 1008.6 |
| 20260831104517 | 20 | 203 | 3.2 | 6.4 | 0.00 | 0.00 | 0.00 | 98 | 1008.6 |
| 20260831103517 | 20 | 203 | 3.2 | 4.8 | 0.00 | 0.00 | 0.00 | 98 | 1008.5 |
| 20260831102517 | 20 | 203 | 1.6 | 3.2 | 0.00 | 0.00 | 0.00 | 98 | 1008.5 |
| 20260831101517 | 20 | 180 | 1.6 | 4.8 | 0.00 | 0.00 | 0.00 | 98 | 1008.6 |
| 20260831100517 | 20 | 0.0 | 0.0 | 0.00 | 0.00 | 0.00 | 98 | 1008.3 | |
| 20260831095516 | 20 | 180 | 3.2 | 6.4 | 0.00 | 0.00 | 0.00 | 98 | 1008.3 |
| 20260831094517 | 20 | 180 | 4.8 | 6.4 | 0.00 | 0.00 | 0.00 | 98 | 1008.3 |
| 20260831093538 | 21 | 180 | 4.8 | 8.0 | 0.00 | 0.00 | 0.00 | 98 | 1008.4 |
| 20260831092516 | 21 | 180 | 4.8 | 6.4 | 0.00 | 0.00 | 0.00 | 98 | 1008.5 |
| 20260831091517 | 21 | 203 | 6.4 | 11.3 | 0.00 | 0.00 | 0.00 | 98 | 1008.5 |
| 20260831090557 | 21 | 180 | 6.4 | 9.7 | 0.00 | 0.00 | 0.00 | 98 | 1008.3 |
| 20260831085518 | 21 | 180 | 4.8 | 9.7 | 0.00 | 0.00 | 0.00 | 98 | 1008.5 |
| 20260831084516 | 21 | 180 | 6.4 | 8.0 | 0.00 | 0.00 | 0.00 | 98 | 1008.5 |
| 20260831083657 | 21 | 180 | 6.4 | 11.3 | 0.00 | 0.00 | 0.00 | 98 | 1008.5 |
| 20260831082516 | 21 | 180 | 6.4 | 9.7 | 0.00 | 0.00 | 0.00 | 98 | 1008.3 |
| 20260831081516 | 21 | 180 | 6.4 | 9.7 | 0.00 | 0.00 | 0.00 | 97 | 1008.1 |
| 20260831080517 | 21 | 180 | 6.4 | 9.7 | 0.00 | 0.00 | 0.00 | 97 | 1008.3 |
| 20260831075516 | 21 | 180 | 9.7 | 14.5 | 0.00 | 0.00 | 0.00 | 97 | 1008.2 |
| 20260831074517 | 21 | 180 | 9.7 | 16.1 | 0.00 | 0.00 | 0.00 | 97 | 1008.2 |
| 20260831073516 | 21 | 180 | 9.7 | 17.7 | 0.00 | 0.00 | 0.00 | 97 | 1008.2 |
| 20260831072517 | 22 | 180 | 9.7 | 14.5 | 0.00 | 0.00 | 0.00 | 97 | 1008.3 |
| 20260831071537 | 22 | 180 | 11.3 | 16.1 | 0.00 | 0.00 | 0.00 | 97 | 1008.3 |
| 20260831070516 | 22 | 180 | 9.7 | 16.1 | 0.00 | 0.00 | 0.00 | 97 | 1008.3 |
| 20260831065536 | 22 | 180 | 9.7 | 17.7 | 0.00 | 0.00 | 0.00 | 97 | 1008.4 |
| 20260831064536 | 22 | 180 | 9.7 | 16.1 | 0.00 | 0.00 | 0.00 | 97 | 1008.4 |
| 20260831063517 | 22 | 180 | 11.3 | 19.3 | 0.00 | 0.00 | 0.00 | 97 | 1008.4 |
| 20260831062516 | 22 | 158 | 11.3 | 19.3 | 0.00 | 0.00 | 0.00 | 97 | 1008.2 |
| 20260831061516 | 22 | 180 | 12.9 | 19.3 | 0.00 | 0.00 | 0.00 | 96 | 1008.5 |
| 20260831060537 | 22 | 180 | 12.9 | 22.5 | 0.00 | 0.00 | 0.00 | 96 | 1008.6 |
| 20260831055516 | 22 | 180 | 12.9 | 19.3 | 0.00 | 0.00 | 0.00 | 96 | 1008.6 |
| 20260831054517 | 22 | 158 | 12.9 | 20.9 | 0.00 | 0.00 | 0.00 | 96 | 1008.5 |
| 20260831053516 | 22 | 158 | 11.3 | 16.1 | 0.00 | 0.00 | 0.00 | 96 | 1008.7 |
| 20260831052516 | 22 | 158 | 11.3 | 17.7 | 0.00 | 0.00 | 0.00 | 96 | 1008.9 |
| 20260831051516 | 22 | 180 | 11.3 | 16.1 | 0.00 | 0.00 | 0.00 | 96 | 1009.0 |
| 20260831050517 | 22 | 158 | 9.7 | 19.3 | 0.00 | 0.00 | 0.00 | 96 | 1008.9 |
| 20260831045517 | 22 | 180 | 11.3 | 14.5 | 0.00 | 0.00 | 0.00 | 95 | 1008.9 |
| 20260831044517 | 22 | 180 | 11.3 | 19.3 | 0.00 | 0.00 | 0.00 | 95 | 1008.9 |
| 20260831043518 | 22 | 180 | 11.3 | 19.3 | 0.00 | 0.00 | 0.00 | 95 | 1008.9 |
| 20260831042517 | 22 | 158 | 11.3 | 16.1 | 0.00 | 0.00 | 0.00 | 94 | 1008.8 |
| 20260831041517 | 23 | 158 | 11.3 | 20.9 | 0.00 | 0.00 | 0.00 | 94 | 1008.8 |
| 20260831040517 | 23 | 158 | 11.3 | 19.3 | 0.00 | 0.00 | 0.00 | 94 | 1008.9 |
| 20260831035518 | 23 | 158 | 11.3 | 17.7 | 0.00 | 0.00 | 0.00 | 94 | 1008.6 |
| 20260831034517 | 23 | 158 | 12.9 | 19.3 | 0.00 | 0.00 | 0.00 | 93 | 1008.5 |
| 20260831033517 | 23 | 158 | 14.5 | 20.9 | 0.00 | 0.00 | 0.00 | 93 | 1008.5 |
| 20260831032517 | 23 | 158 | 14.5 | 20.9 | 0.00 | 0.00 | 0.00 | 93 | 1008.4 |
| 20260831031517 | 23 | 158 | 16.1 | 27.4 | 0.00 | 0.00 | 0.00 | 92 | 1008.4 |
| 20260831030517 | 23 | 158 | 16.1 | 24.1 | 0.00 | 0.00 | 0.00 | 92 | 1008.3 |
| 20260831025617 | 23 | 158 | 14.5 | 20.9 | 0.00 | 0.00 | 0.00 | 92 | 1008.3 |
| 20260831024518 | 23 | 158 | 14.5 | 20.9 | 0.00 | 0.00 | 0.00 | 91 | 1008.4 |
| 20260831023516 | 24 | 158 | 14.5 | 20.9 | 0.00 | 0.00 | 0.00 | 91 | 1008.4 |
| 20260831022537 | 24 | 158 | 12.9 | 24.1 | 0.00 | 0.00 | 0.00 | 91 | 1008.3 |
| 20260831021517 | 24 | 158 | 12.9 | 22.5 | 0.00 | 0.00 | 0.00 | 90 | 1008.3 |